Weather History for KFWC - May, 2014

Change the Weather History Date:

Sunday, May 11, 2014

  Actual Average (KEVV) Record (KEVV)
Temperature  
Mean Temperature 74 °F 64 °F  
Max Temperature 86 °F 75 °F 88 °F (2005)
Min Temperature 62 °F 53 °F 36 °F (1945)
Degree Days  
Heating Degree Days 0 3  
Month to date heating degree days 46  
Since 1 July heating degree days 4501  
Cooling Degree Days 9 3  
Month to date cooling degree days 20  
Year to date cooling degree days 47  
Growing Degree Days 24 (Base 50)    
Moisture  
Dew Point 68 °F    
Average Humidity 84    
Maximum Humidity 94    
Minimum Humidity 58    
Precipitation  
Precipitation 0.73 in 0.18 in 3.12 in (1918)
Month to date precipitation 1.90  
Year to date precipitation 16.78  
Snow  
Snow 0.00 in 0.00 in - ()
Month to date snowfall 0.0  
Since 1 July snowfall 11.8  
Snow Depth -    
Sea Level Pressure  
Sea Level Pressure 29.97 in    
Wind  
Wind Speed 6 mph (SSE)    
Max Wind Speed 16 mph    
Max Gust Speed 22 mph    
Visibility 10 miles    
Events Rain , Thunderstorm    
T = Trace of Precipitation, MM = Missing Value Source: NWS Daily Summary

Daily Weather History Graph

Daily Weather History Graph

Search for Another Location

Airport or City:

Trip Planner

Search our weather history database for the weather conditions in past years. The results will help you decide how hot, cold, wet, or windy it might be!

Date:

Astronomy

May. 11, 2014 Rise Set
Actual Time 5:46 AM CDT 7:54 PM CDT
Civil Twilight 5:16 AM CDT 8:24 PM CDT
Nautical Twilight 4:40 AM CDT 9:00 PM CDT
Astronomical Twilight 4:01 AM CDT 9:39 PM CDT
Moon 4:52 PM CDT (5/11) 3:48 AM CDT (5/11)
Length of Visible Light 15h 07m
Length of Day
14h 08m
Waxing Gibbous, 89% of the Moon is Illuminated
May 11
Waxing Gibbous
May 14
Full
May 21
Last Quarter
May 28
New
Jun 5
First Quarter

Hourly Weather History & Observations

Time (CDT) Temp. Heat Index Dew Point Humidity Pressure Visibility Wind Dir Wind Speed Gust Speed Precip Events Conditions
12:15 AM 69.8 °F - 66.2 °F 88% 29.97 in 10.0 mi SSE 4.6 mph - N/A   Clear
12:35 AM 71.6 °F - 66.2 °F 83% 29.96 in 10.0 mi South 5.8 mph - N/A   Scattered Clouds
12:55 AM 71.6 °F - 66.2 °F 83% 29.96 in 10.0 mi Calm Calm - N/A   Clear
1:15 AM 69.8 °F - 66.2 °F 88% 29.96 in 10.0 mi Calm Calm - N/A   Clear
1:35 AM 69.8 °F - 66.2 °F 88% 29.96 in 10.0 mi Calm Calm - N/A   Clear
1:55 AM 69.8 °F - 66.2 °F 88% 29.96 in 10.0 mi Calm Calm - N/A   Clear
2:15 AM 69.8 °F - 66.2 °F 88% 29.98 in 10.0 mi Calm Calm - N/A   Mostly Cloudy
2:35 AM 69.8 °F - 66.2 °F 88% 29.98 in 10.0 mi Calm Calm - N/A   Mostly Cloudy
2:55 AM 69.8 °F - 66.2 °F 88% 29.98 in 10.0 mi Calm Calm - N/A   Mostly Cloudy
3:15 AM 66.2 °F - 62.6 °F 88% 30.00 in 10.0 mi North 6.9 mph 18.4 mph N/A   Mostly Cloudy
3:35 AM 66.2 °F - 62.6 °F 88% 30.00 in 10.0 mi ENE 4.6 mph - N/A   Scattered Clouds
3:55 AM 66.2 °F - 62.6 °F 88% 30.00 in 10.0 mi NNE 6.9 mph - N/A   Scattered Clouds
4:15 AM 64.4 °F - 62.6 °F 94% 30.00 in 10.0 mi NNE 4.6 mph - N/A   Scattered Clouds
4:35 AM 64.4 °F - 62.6 °F 94% 30.01 in 10.0 mi NNE 3.5 mph - N/A   Scattered Clouds
4:55 AM 64.4 °F - 62.6 °F 94% 30.02 in 10.0 mi North 10.4 mph - N/A   Mostly Cloudy
5:15 AM 62.6 °F - 60.8 °F 94% 30.01 in 10.0 mi ENE 8.1 mph - N/A   Mostly Cloudy
5:35 AM 62.6 °F - 60.8 °F 94% 30.01 in 10.0 mi NE 3.5 mph - N/A   Scattered Clouds
5:55 AM 62.6 °F - 60.8 °F 94% 30.01 in 10.0 mi ENE 3.5 mph - N/A   Scattered Clouds
6:15 AM 62.6 °F - 60.8 °F 94% 30.01 in 10.0 mi East 5.8 mph - N/A   Clear
6:35 AM 64.4 °F - 60.8 °F 88% 30.02 in 10.0 mi East 4.6 mph - N/A   Clear
6:55 AM 64.4 °F - 62.6 °F 94% 30.02 in 10.0 mi ESE 4.6 mph - N/A   Clear
7:15 AM 64.4 °F - 62.6 °F 94% 30.02 in 10.0 mi Calm Calm - N/A   Clear
7:35 AM 66.2 °F - 62.6 °F 88% 30.01 in 10.0 mi SE 5.8 mph - N/A   Clear
7:55 AM 68.0 °F - 62.6 °F 83% 30.02 in 10.0 mi SE 8.1 mph - N/A   Scattered Clouds
8:15 AM 69.8 °F - 64.4 °F 83% 30.02 in 10.0 mi SE 10.4 mph - N/A   Clear
8:35 AM 69.8 °F - 64.4 °F 83% 30.03 in 10.0 mi SE 8.1 mph - N/A   Scattered Clouds
8:55 AM 69.8 °F - 66.2 °F 88% 30.05 in 10.0 mi SSE 5.8 mph - N/A Thunderstorm Mostly Cloudy
9:15 AM 69.8 °F - 66.2 °F 88% 30.03 in 10.0 mi SSE 8.1 mph - N/A Rain Light Rain
9:35 AM 71.6 °F - 66.2 °F 83% 30.03 in 10.0 mi South 4.6 mph - N/A   Scattered Clouds
9:55 AM 71.6 °F - 68.0 °F 88% 30.02 in 10.0 mi South 6.9 mph - N/A Thunderstorm Clear
10:15 AM 71.6 °F - 68.0 °F 88% 30.02 in 10.0 mi South 10.4 mph - N/A Rain , Thunderstorm Light Thunderstorms and Rain
10:35 AM 71.6 °F - 68.0 °F 88% 30.02 in 10.0 mi South 9.2 mph - N/A   Clear
10:55 AM 73.4 °F - 66.2 °F 78% 30.01 in 10.0 mi South 5.8 mph - N/A   Clear
11:15 AM 77.0 °F - 69.8 °F 78% 30.00 in 10.0 mi SSE 6.9 mph - N/A   Clear
11:35 AM 78.8 °F - 69.8 °F 74% 30.00 in 10.0 mi South 9.2 mph - N/A   Clear
11:55 AM 80.6 °F 83.9 °F 69.8 °F 70% 30.00 in 10.0 mi South 12.7 mph - N/A   Clear
12:15 PM 80.6 °F 84.6 °F 71.6 °F 74% 29.99 in 10.0 mi SE 10.4 mph - N/A   Clear
12:35 PM 80.6 °F 84.6 °F 71.6 °F 74% 29.99 in 10.0 mi South 10.4 mph - N/A   Clear
12:55 PM 82.4 °F 87.2 °F 71.6 °F 70% 29.98 in 10.0 mi South 12.7 mph - N/A   Clear
1:15 PM 82.4 °F 88.2 °F 73.4 °F 74% 29.98 in 10.0 mi South 15.0 mph - N/A   Clear
1:35 PM 82.4 °F 87.2 °F 71.6 °F 70% 29.97 in 10.0 mi South 9.2 mph - N/A   Scattered Clouds
1:55 PM 84.2 °F 90.9 °F 73.4 °F 70% 29.97 in 10.0 mi South 12.7 mph - N/A   Clear
2:15 PM 84.2 °F 90.9 °F 73.4 °F 70% 29.96 in 10.0 mi South 9.2 mph - N/A   Scattered Clouds
2:35 PM 84.2 °F 89.6 °F 71.6 °F 66% 29.95 in 10.0 mi South 12.7 mph 16.1 mph N/A   Scattered Clouds
2:55 PM 86.0 °F 91.8 °F 71.6 °F 62% 29.94 in 10.0 mi SSW 12.7 mph 21.9 mph N/A   Clear
3:15 PM 84.2 °F 89.6 °F 71.6 °F 66% 29.93 in 10.0 mi South 10.4 mph - N/A   Scattered Clouds
3:35 PM 84.2 °F 89.6 °F 71.6 °F 66% 29.93 in 10.0 mi SSW 11.5 mph - N/A Thunderstorm Scattered Clouds
3:55 PM 80.6 °F 82.3 °F 64.4 °F 58% 29.93 in 10.0 mi SSE 16.1 mph 21.9 mph N/A Thunderstorm Thunderstorm
4:15 PM 69.8 °F - 66.2 °F 88% 29.94 in 0.8 mi ENE 10.4 mph 21.9 mph 0.73 in Rain , Thunderstorm Heavy Thunderstorms and Rain
4:35 PM 73.4 °F - 69.8 °F 88% 29.94 in 10.0 mi SE 9.2 mph 16.1 mph N/A Rain , Thunderstorm Light Thunderstorms and Rain
4:55 PM 77.0 °F - 71.6 °F 83% 29.93 in 10.0 mi South 8.1 mph - N/A Thunderstorm Thunderstorm
5:15 PM 78.8 °F - 71.6 °F 78% 29.92 in 10.0 mi South 11.5 mph - N/A   Clear
5:35 PM 78.8 °F - 71.6 °F 78% 29.92 in 10.0 mi South 9.2 mph - N/A   Clear
5:55 PM 78.8 °F - 73.4 °F 83% 29.91 in 10.0 mi South 11.5 mph - N/A   Clear
6:15 PM 78.8 °F - 73.4 °F 83% 29.91 in 10.0 mi South 10.4 mph - N/A   Clear
6:35 PM 78.8 °F - 73.4 °F 83% 29.90 in 10.0 mi SSE 9.2 mph - N/A   Clear
6:55 PM 78.8 °F - 73.4 °F 83% 29.91 in 10.0 mi SSE 8.1 mph - N/A   Clear
7:15 PM 78.8 °F - 73.4 °F 83% 29.92 in 10.0 mi SSE 6.9 mph - N/A   Clear
7:35 PM 78.8 °F - 73.4 °F 83% 29.93 in 10.0 mi SSE 4.6 mph - N/A   Scattered Clouds
7:55 PM 75.2 °F - 73.4 °F 94% 29.92 in 10.0 mi SE 3.5 mph - N/A   Scattered Clouds
8:15 PM 75.2 °F - 73.4 °F 94% 29.92 in 10.0 mi SE 4.6 mph - N/A   Scattered Clouds
8:35 PM 75.2 °F - 73.4 °F 94% 29.92 in 10.0 mi SSE 4.6 mph - N/A   Clear
8:55 PM 75.2 °F - 73.4 °F 94% 29.92 in 10.0 mi SSE 4.6 mph - N/A   Clear
9:15 PM 75.2 °F - 73.4 °F 94% 29.93 in 10.0 mi SSE 6.9 mph - N/A   Clear
9:35 PM 75.2 °F - 71.6 °F 89% 29.94 in 10.0 mi SSE 8.1 mph - N/A   Clear
9:55 PM 75.2 °F - 71.6 °F 89% 29.95 in 10.0 mi SSE 6.9 mph - N/A   Scattered Clouds
10:15 PM 75.2 °F - 71.6 °F 89% 29.95 in 10.0 mi SSE 8.1 mph - N/A   Scattered Clouds
10:35 PM 75.2 °F - 71.6 °F 89% 29.96 in 10.0 mi SSE 5.8 mph - N/A   Mostly Cloudy
10:55 PM 75.2 °F - 71.6 °F 89% 29.97 in 10.0 mi SSE 5.8 mph - N/A   Scattered Clouds
11:15 PM 75.2 °F - 71.6 °F 89% 29.97 in 10.0 mi SSE 4.6 mph - N/A   Mostly Cloudy
11:35 PM 75.2 °F - 71.6 °F 89% 29.97 in 10.0 mi SSE 4.6 mph - N/A   Mostly Cloudy
11:55 PM 75.2 °F - 71.6 °F 89% 29.97 in 10.0 mi SSE 5.8 mph - N/A   Mostly Cloudy